Location: Frizzleburg
(41.0764°N, 80.4548°W)
Time: 07:45:32
(UTC+00:00)

Cosmos 2061 Rocket - Pass Details

Date: 17 November 2019
Orbit: 965 x 1013 km, 82.9° (Epoch: 10 December)

Event Time Altitude Azimuth Distance (km) Brightness Sun altitude
Rises 10:22:29 0° 178° (S) 3,678 7.1 -20.5°
Reaches altitude 10° 10:25:00 10° 176° (S) 2,727 6.5 -20.0°
Maximum altitude 10:31:12 71° 94° (E) 1,028 4.3 -18.9°
Drops below altitude 10° 10:37:23 10° 12° (NNE) 2,719 6.4 -17.7°
Sets 10:39:54 0° 10° (N) 3,667 7.0 -17.3°
